Cliffside Park, New Jersey, United States (07010)
Lat: 40.82N, Lon: 73.99W
Wx Zone: NJZ104
Local Info
Past Weather Observations for Today

NOTE: This archive is for the closest National Weather Service station to Cliffside Park. Information may differ from the station used for current weather conditions.

Click here for Long-term Archive

Time Weather Temperature Dewpoint Humidity Pressure Winds Precip Visibility
08:51
Overcast
Hazy
23°F / -5°C 16°F / -9°C 74% 29.71 in
(1006 mb)
Calm 0.00 in
(0.00 mm)
3SM
08:35
Overcast
Light Snow
23°F / -5°C 14°F / -10°C 68% 29.71 in
(1006 mb)
N 8.1 mph
(N 13 kph)
0.00 in
(0.00 mm)
3SM
08:21
Overcast
Light Snow
23°F / -5°C 14°F / -10°C 68% 29.71 in
(1006 mb)
N 8.1 mph
(N 13 kph)
0.00 in
(0.00 mm)
2SM
07:51
Overcast
23°F / -5°C 12°F / -11°C 63% 29.71 in
(1006 mb)
Variable 6.9 mph
(Variable 11 kph)
- 8SM
06:51
Overcast
21°F / -6°C 12°F / -11°C 68% 29.68 in
(1005 mb)
Calm - 9SM
05:51
Overcast
Hazy
21°F / -6°C 12°F / -11°C 68% 29.68 in
(1005 mb)
NNW 8.1 mph
(NNW 13 kph)
0.01 in
(0.25 mm)
5SM
05:44
Overcast
Hazy
21°F / -6°C 14°F / -10°C 74% 29.65 in
(1004 mb)
N 9.2 mph
(N 15 kph)
0.01 in
(0.25 mm)
4SM
05:32
Overcast
Light Snow
21°F / -6°C 14°F / -10°C 74% 29.65 in
(1004 mb)
N 10.4 mph
(N 17 kph)
0.01 in
(0.25 mm)
2SM
05:00
Obscured
Light Snow
21°F / -6°C 16°F / -9°C 80% 29.68 in
(1005 mb)
Variable 6.9 mph
(Variable 11 kph)
0.00 in
(0.00 mm)
1SM
04:51
Obscured
Light Snow
21°F / -6°C 16°F / -9°C 80% 29.68 in
(1005 mb)
N 10.4 mph
(N 17 kph)
0.03 in
(0.76 mm)
3/4SM
04:47
Obscured
Light Snow
21°F / -6°C 16°F / -9°C 80% 29.68 in
(1005 mb)
Variable 5.8 mph
(Variable 9 kph)
0.03 in
(0.76 mm)
3/4SM
04:30
Obscured
Light Snow
21°F / -6°C 16°F / -9°C 80% 29.68 in
(1005 mb)
Variable 5.8 mph
(Variable 9 kph)
0.02 in
(0.51 mm)
1SM
03:51
Obscured
Snow
21°F / -6°C 16°F / -9°C 80% 29.68 in
(1005 mb)
NNE 11.5 mph
(NNE 19 kph)
0.05 in
(1.27 mm)
1/2SM
03:11
Obscured
Snow
21°F / -6°C 16°F / -9°C 80% 29.68 in
(1005 mb)
NNE 11.5 mph
(NNE 19 kph)
0.01 in
(0.25 mm)
1/2SM
02:51
Overcast
Light Snow
21°F / -6°C 18°F / -8°C 86% 29.68 in
(1005 mb)
NE 8.1 mph
(NE 13 kph)
0.03 in
(0.76 mm)
3/4SM
02:49
Overcast
Light Snow
21°F / -6°C 18°F / -8°C 86% 29.68 in
(1005 mb)
NNE 10.4 mph
(NNE 17 kph)
0.03 in
(0.76 mm)
3/4SM
02:27
Overcast
Light Snow
23°F / -5°C 18°F / -8°C 80% 29.68 in
(1005 mb)
NE 12.7 mph
(NE 20 kph)
0.02 in
(0.51 mm)
1SM
02:12
Obscured
Light Snow
23°F / -5°C 18°F / -8°C 80% 29.68 in
(1005 mb)
Variable 6.9 mph
(Variable 11 kph)
0.01 in
(0.25 mm)
3/4SM
01:51
Obscured
Light Snow
23°F / -5°C 18°F / -8°C 80% 29.71 in
(1006 mb)
NNE 16.1 mph
(NNE 26 kph)
0.11 in
(2.79 mm)
3/4SM
00:51
Obscured
Heavy Snow
25°F / -4°C 19°F / -7°C 80% 29.71 in
(1006 mb)
Variable 6.9 mph
(Variable 11 kph)
0.08 in
(2.03 mm)
1/4SM
00:36
Overcast
Snow
25°F / -4°C 19°F / -7°C 80% 29.71 in
(1006 mb)
NE 12.7 mph
(NE 20 kph)
0.05 in
(1.27 mm)
1/4SM
Time Weather Temperature Dewpoint Humidity Pressure Winds Precip Visibility


Weather for websites

WeatherForYou.com, LLC is not responsible for any damages or problems caused by this service. Current weather conditions are obtained from the closest station including government and personal stations which may have varying degrees of accuracy. Weather forecasts are derived from the NOAA NDFD. Like all things, this site belongs to Jesus Christ... He just trusts me to maintain it. If you have any questions or comments email webmaster@weatherforyou.com

Copyright © 2015, WeatherForYou.com LLC. All rights reserved.